Limon, CO

7:49 PM MST on February 13, 2016 (GMT -0700)
Limon Municipal

Weather History for KLIC - January, 2013

Change the Weather History Date:

Tuesday, January 1, 2013

  Actual Average Record
Temperature  
Mean Temperature 9 °F -  
Max Temperature 25 °F - 68 °F (1997)
Min Temperature -7 °F - -16 °F (2011)
Degree Days  
Heating Degree Days 56    
Month to date heating degree days 56  
Cooling Degree Days 0    
Month to date cooling degree days 0  
Moisture  
Dew Point 0 °F    
Average Humidity 82    
Maximum Humidity 92    
Minimum Humidity 55    
Precipitation  
Precipitation 0.00 in - 0.15 in (2003)
Month to date precipitation 0.00  
Year to date precipitation 0.00  
Sea Level Pressure  
Sea Level Pressure 30.27 in    
Wind  
Wind Speed 5 mph (NW)    
Max Wind Speed 14 mph    
Max Gust Speed 17 mph    
Visibility 10 miles    
Events      
T = Trace of Precipitation, MM = Missing Value Source: NWS Daily Summary

Daily Weather History Graph

Daily Weather History Graph

Search for Another Location

Airport or City:

Trip Planner

Search our weather history database for the weather conditions in past years. The results will help you decide how hot, cold, wet, or windy it might be!

Date:

Astronomy

Jan. 01, 2013 Rise Set
Actual Time 7:14 AM MST 4:42 PM MST
Civil Twilight 6:44 AM MST 5:12 PM MST
Nautical Twilight 6:10 AM MST 5:46 PM MST
Astronomical Twilight 5:38 AM MST 6:18 PM MST
Moon 9:14 PM MST (1/1) 9:29 AM MST (1/1)
Length of Visible Light 10h 28m
Length of Day
9h 28m
Waning Gibbous, 83% of the Moon is Illuminated
Jan 1
Waning Gibbous
Jan 4
Last Quarter
Jan 11
New
Jan 18
First Quarter
Jan 26
Full

Hourly Weather History & Observations

Time (MST) Temp. Windchill Dew Point Humidity Pressure Visibility Wind Dir Wind Speed Gust Speed Precip Events Conditions
12:55 AM -4.0 °F -14.6 °F -6.0 °F 91% 30.24 in 10.0 mi NNW 4.6 mph - N/A   Clear
1:53 AM -5.8 °F -16.7 °F -7.6 °F 92% 30.02 in 10.0 mi North 4.6 mph - N/A   Partly Cloudy
1:55 AM -5.1 °F -15.8 °F -8.0 °F 87% 30.25 in 10.0 mi North 4.6 mph - N/A   Partly Cloudy
2:14 AM -5.8 °F -16.7 °F -7.6 °F 92% 30.03 in 10.0 mi North 4.6 mph - N/A   Mostly Cloudy
2:44 AM -4.0 °F -17.8 °F -5.8 °F 92% 30.03 in 10.0 mi North 6.9 mph - N/A   Mostly Cloudy
2:55 AM -2.9 °F -15.0 °F -5.1 °F 90% 30.25 in 10.0 mi NNW 5.8 mph - N/A   Overcast
3:55 AM -2.0 °F -13.9 °F -5.1 °F 87% 30.25 in 10.0 mi NNW 5.8 mph - N/A   Mostly Cloudy
4:55 AM -2.0 °F -13.9 °F -5.1 °F 87% 30.28 in 10.0 mi NW 5.8 mph - N/A   Scattered Clouds
5:55 AM -6.0 °F -16.9 °F -9.9 °F 83% 30.32 in 10.0 mi NW 4.6 mph - N/A   Clear
6:55 AM -4.0 °F -14.6 °F -7.1 °F 87% 30.34 in 10.0 mi WNW 4.6 mph - N/A   Clear
7:55 AM 3.0 °F -6.4 °F -0.0 °F 87% 30.32 in 10.0 mi WNW 4.6 mph - N/A   Clear
8:55 AM 8.1 °F 1.4 °F 5.0 °F 87% 30.34 in 10.0 mi WNW 3.5 mph - N/A   Clear
9:55 AM 14.0 °F 3.9 °F 10.0 °F 84% 30.32 in 10.0 mi WNW 6.9 mph - N/A   Partly Cloudy
10:55 AM 18.0 °F 8.7 °F 12.9 °F 81% 30.32 in 10.0 mi West 6.9 mph - N/A   Clear
11:55 AM 21.9 °F 15.7 °F 15.1 °F 75% 30.31 in 10.0 mi West 4.6 mph - N/A   Clear
12:55 PM 24.1 °F 15.2 °F 15.1 °F 69% 30.29 in 10.0 mi NW 8.1 mph - N/A   Clear
1:55 PM 25.0 °F 14.2 °F 10.9 °F 55% 30.28 in 10.0 mi North 11.5 mph - N/A   Clear
2:55 PM 24.1 °F 17.0 °F 10.9 °F 57% 30.26 in 10.0 mi West 5.8 mph - N/A   Clear
3:55 PM 19.9 °F 12.1 °F 10.0 °F 65% 30.27 in 10.0 mi NW 5.8 mph - N/A   Clear
4:55 PM 14.0 °F 8.2 °F 5.0 °F 67% 30.30 in 10.0 mi West 3.5 mph - N/A   Clear
5:55 PM 7.0 °F - 1.9 °F 80% 30.35 in 10.0 mi Calm Calm - N/A   Clear
6:55 PM -0.0 °F -13.0 °F -4.0 °F 83% 30.37 in 10.0 mi North 6.9 mph - N/A   Clear
7:55 PM 1.9 °F - -2.0 °F 83% 30.34 in 10.0 mi Calm Calm - N/A   Clear
8:55 PM -0.9 °F -12.7 °F -4.0 °F 87% 30.35 in 10.0 mi North 5.8 mph - N/A   Clear
9:55 PM -0.0 °F -9.9 °F -4.0 °F 83% 30.34 in 10.0 mi North 4.6 mph - N/A   Clear
10:55 PM -0.0 °F -16.3 °F -2.9 °F 88% 30.32 in 10.0 mi North 10.4 mph - N/A   Clear
11:55 PM 1.9 °F -9.2 °F -0.0 °F 91% 30.28 in 10.0 mi North 5.8 mph - N/A   Clear